EN

Hourly Weather Tonhe

Today, 11 April, Sunday

Time Temperature Precipitation Wind Pressure Humidity
00:00 +8°C° 0 mm 4 mps 764 mmHg 64%
01:00 +8°C° 0 mm 4 mps 764 mmHg 65%
02:00 +9°C° 0 mm 3 mps 764 mmHg 66%
03:00 +8°C° 0 mm 3 mps 764 mmHg 67%
04:00 +8°C° 0 mm 3 mps 764 mmHg 67%
05:00 +8°C° 0 mm 3 mps 764 mmHg 67%
06:00 +8°C° 0 mm 2 mps 765 mmHg 67%
07:00 +12°C° 0 mm 2 mps 765 mmHg 58%
08:00 +14°C° 0 mm 2 mps 765 mmHg 48%
09:00 +17°C° 0 mm 2 mps 765 mmHg 39%
10:00 +18°C° 0 mm 3 mps 764 mmHg 37%
11:00 +19°C° 0 mm 3 mps 764 mmHg 35%
12:00 +20°C° 0 mm 4 mps 764 mmHg 33%
13:00 +20°C° 0 mm 5 mps 763 mmHg 35%
14:00 +20°C° 0 mm 5 mps 763 mmHg 36%
15:00 +20°C° 0 mm 6 mps 762 mmHg 37%
16:00 +19°C° 0 mm 6 mps 762 mmHg 44%
17:00 +17°C° 0 mm 5 mps 762 mmHg 50%
18:00 +16°C° 0 mm 5 mps 762 mmHg 57%
19:00 +15°C° 0 mm 5 mps 762 mmHg 59%
20:00 +14°C° 0 mm 5 mps 762 mmHg 61%
21:00 +13°C° 0 mm 5 mps 763 mmHg 64%
22:00 +13°C° 0 mm 5 mps 762 mmHg 63%
23:00 +13°C° 0 mm 5 mps 762 mmHg 62%

Tomorrow, 12 April, Monday

Time Temperature Precipitation Wind Pressure Humidity
00:00 +12°C° 0 mm 5 mps 762 mmHg 61%
01:00 +12°C° 0 mm 5 mps 762 mmHg 61%
02:00 +12°C° 0 mm 5 mps 761 mmHg 61%
03:00 +12°C° 0 mm 5 mps 761 mmHg 61%
04:00 +12°C° 0 mm 4 mps 760 mmHg 60%
05:00 +12°C° 0 mm 4 mps 760 mmHg 58%
06:00 +12°C° 0 mm 4 mps 760 mmHg 57%
07:00 +13°C° 0 mm 4 mps 759 mmHg 51%
08:00 +15°C° 0 mm 4 mps 759 mmHg 45%
09:00 +17°C° 0 mm 4 mps 759 mmHg 39%
10:00 +17°C° 0 mm 5 mps 758 mmHg 33%
11:00 +19°C° 0 mm 5 mps 758 mmHg 28%
12:00 +19°C° 0 mm 5 mps 757 mmHg 23%
13:00 +19°C° 0 mm 5 mps 757 mmHg 32%
14:00 +18°C° 0 mm 4 mps 756 mmHg 40%
15:00 +18°C° 0 mm 4 mps 756 mmHg 48%
16:00 +15°C° 0.5 mm 4 mps 756 mmHg 63%
17:00 +14°C° 0.5 mm 4 mps 755 mmHg 77%
18:00 +12°C° 0.5 mm 4 mps 755 mmHg 91%
19:00 +13°C° 0.7 mm 4 mps 754 mmHg 91%
20:00 +13°C° 0.7 mm 5 mps 753 mmHg 91%
21:00 +13°C° 0.7 mm 6 mps 752 mmHg 91%
22:00 +14°C° 0.4 mm 6 mps 751 mmHg 90%
23:00 +14°C° 0.4 mm 6 mps 750 mmHg 89%

Day after tomorrow, 13 April, Tuesday

Time Temperature Precipitation Wind Pressure Humidity
00:00 +15°C° 0.4 mm 6 mps 749 mmHg 89%
01:00 +15°C° 0.5 mm 6 mps 748 mmHg 89%
02:00 +15°C° 0.5 mm 5 mps 748 mmHg 89%
03:00 +15°C° 0.5 mm 4 mps 747 mmHg 89%
04:00 +14°C° 0.3 mm 4 mps 747 mmHg 91%
05:00 +14°C° 0.3 mm 4 mps 747 mmHg 93%
06:00 +14°C° 0.3 mm 4 mps 748 mmHg 94%
07:00 +14°C° 0.1 mm 3 mps 748 mmHg 93%
08:00 +15°C° 0.1 mm 2 mps 748 mmHg 91%
09:00 +15°C° 0.1 mm 1 mps 748 mmHg 90%
10:00 +16°C° 0 mm 2 mps 748 mmHg 81%
11:00 +17°C° 0 mm 2 mps 748 mmHg 72%
12:00 +18°C° 0 mm 3 mps 748 mmHg 63%
13:00 +18°C° 0 mm 3 mps 748 mmHg 57%
14:00 +19°C° 0 mm 4 mps 748 mmHg 50%
15:00 +19°C° 0 mm 4 mps 748 mmHg 43%
16:00 +18°C° 0 mm 4 mps 749 mmHg 46%
17:00 +17°C° 0 mm 4 mps 749 mmHg 48%
18:00 +14°C° 0 mm 4 mps 750 mmHg 51%
19:00 +13°C° 0 mm 3 mps 750 mmHg 55%
20:00 +11°C° 0 mm 3 mps 751 mmHg 60%
21:00 +10°C° 0 mm 2 mps 751 mmHg 64%
22:00 +9°C° 0.1 mm 2 mps 752 mmHg 66%
23:00 +8°C° 0.1 mm 3 mps 752 mmHg 68%

14 April, Wednesday

Time Temperature Precipitation Wind Pressure Humidity
00:00 +7°C° 0.1 mm 3 mps 753 mmHg 70%
01:00 +7°C° 0 mm 3 mps 753 mmHg 71%
02:00 +5°C° 0 mm 3 mps 753 mmHg 72%
03:00 +4°C° 0 mm 4 mps 753 mmHg 72%
04:00 +4°C° 0.3 mm 4 mps 754 mmHg 74%
05:00 +3°C° 0.3 mm 5 mps 754 mmHg 76%
06:00 +3°C° 0.3 mm 5 mps 755 mmHg 78%
07:00 +4°C° 0.8 mm 4 mps 755 mmHg 83%
08:00 +5°C° 0.8 mm 3 mps 756 mmHg 87%
09:00 +6°C° 0.8 mm 2 mps 757 mmHg 92%
10:00 +8°C° 0 mm 2 mps 756 mmHg 77%
11:00 +12°C° 0 mm 1 mps 756 mmHg 61%
12:00 +14°C° 0 mm 1 mps 755 mmHg 46%
13:00 +15°C° 0 mm 2 mps 755 mmHg 42%
14:00 +14°C° 0 mm 3 mps 755 mmHg 37%
15:00 +16°C° 0 mm 3 mps 754 mmHg 33%
16:00 +14°C° 0 mm 3 mps 754 mmHg 37%
17:00 +13°C° 0 mm 3 mps 755 mmHg 40%
18:00 +12°C° 0 mm 3 mps 755 mmHg 44%
19:00 +11°C° 0 mm 3 mps 755 mmHg 47%
20:00 +9°C° 0 mm 3 mps 756 mmHg 51%
21:00 +8°C° 0 mm 3 mps 756 mmHg 55%
22:00 +7°C° 0 mm 3 mps 756 mmHg 57%
23:00 +7°C° 0 mm 3 mps 756 mmHg 59%

15 April, Thursday

Time Temperature Precipitation Wind Pressure Humidity
00:00 +5°C° 0 mm 3 mps 756 mmHg 61%
01:00 +5°C° 0 mm 3 mps 756 mmHg 62%
02:00 +5°C° 0 mm 3 mps 756 mmHg 63%
03:00 +4°C° 0 mm 3 mps 756 mmHg 64%
04:00 +4°C° 0 mm 3 mps 756 mmHg 65%
05:00 +4°C° 0 mm 3 mps 756 mmHg 65%
06:00 +5°C° 0 mm 2 mps 757 mmHg 65%
07:00 +7°C° 0 mm 2 mps 757 mmHg 56%
08:00 +11°C° 0 mm 1 mps 756 mmHg 46%
09:00 +14°C° 0 mm 1 mps 756 mmHg 36%
10:00 +15°C° 0 mm 2 mps 756 mmHg 34%
11:00 +16°C° 0 mm 2 mps 756 mmHg 31%
12:00 +18°C° 0 mm 3 mps 755 mmHg 29%
13:00 +18°C° 0 mm 4 mps 755 mmHg 29%
14:00 +17°C° 0 mm 5 mps 754 mmHg 29%
15:00 +19°C° 0 mm 6 mps 753 mmHg 29%
16:00 +17°C° 0 mm 6 mps 753 mmHg 32%
17:00 +16°C° 0 mm 5 mps 753 mmHg 35%
18:00 +15°C° 0 mm 5 mps 753 mmHg 38%
19:00 +13°C° 0 mm 5 mps 753 mmHg 43%
20:00 +12°C° 0 mm 4 mps 754 mmHg 48%
21:00 +10°C° 0 mm 4 mps 754 mmHg 54%
22:00 +10°C° 0 mm 4 mps 754 mmHg 54%
23:00 +10°C° 0 mm 4 mps 754 mmHg 53%

16 April, Friday

Time Temperature Precipitation Wind Pressure Humidity
00:00 +10°C° 0 mm 4 mps 754 mmHg 53%
01:00 +10°C° 0 mm 4 mps 754 mmHg 57%
02:00 +10°C° 0 mm 4 mps 754 mmHg 61%
03:00 +8°C° 0 mm 5 mps 754 mmHg 64%
04:00 +8°C° 0 mm 4 mps 754 mmHg 68%
05:00 +8°C° 0 mm 4 mps 754 mmHg 73%
06:00 +8°C° 0 mm 4 mps 754 mmHg 77%
07:00 +10°C° 0 mm 4 mps 754 mmHg 70%
08:00 +12°C° 0 mm 3 mps 754 mmHg 62%
09:00 +14°C° 0 mm 3 mps 754 mmHg 55%
10:00 +16°C° 0 mm 3 mps 754 mmHg 50%
11:00 +17°C° 0 mm 4 mps 754 mmHg 46%
12:00 +19°C° 0 mm 4 mps 754 mmHg 41%
13:00 +19°C° 0 mm 4 mps 753 mmHg 39%
14:00 +20°C° 0 mm 4 mps 753 mmHg 38%
15:00 +20°C° 0 mm 4 mps 752 mmHg 36%
16:00 +20°C° 0 mm 4 mps 752 mmHg 39%
17:00 +19°C° 0 mm 4 mps 752 mmHg 41%
18:00 +18°C° 0 mm 4 mps 752 mmHg 44%
19:00 +17°C° 0 mm 3 mps 753 mmHg 46%
20:00 +14°C° 0 mm 3 mps 753 mmHg 49%
21:00 +12°C° 0 mm 3 mps 754 mmHg 51%
22:00 +12°C° 0 mm 3 mps 753 mmHg 51%
23:00 +12°C° 0 mm 3 mps 753 mmHg 51%
Show more

We Need Your Consent

Meteoprog and our Service Providers may store and access personal data such as cookies, device identifiers or other similar technologies on your device and process such data to personalise content and ads, as well as provide social media features and to analyse the traffic.

  • Store and/or access information on your device

    Cookies, device identifiers or other information can be stored or accessed on your device for the purposes indicated above.

  • Personalised ads and content, ad and content measurement, audience insights, and products development

    Ads and content can be personalised based on a profile. More data can be added to better personalise ads and content. Ad and content performance can be measured. Insights about the audience who saw the ads and content can be derived. Such data can be used to develop or improve user’s experience, systems and software.

By clicking ‘I Agree’ you will allow the use of indicated cookies, device identifiers, web beacons or other similar technologies. Your settings can be changed in the browser on your device.

For certain purposes, legitimate interests may be relied on, rather than consent. You can read more about this in our Privacy and Cookie Policy.